Find Starlink 73

NORAD ID: 44284 Int'l Des: 2019-029 Owner: SPXS Country: US Constellation: starlink decayed
LEOCIRCULAR

Re-entered — Sep 27, 2020

Loading 3D Globe...

About Starlink 73

Starlink 73 (NORAD 44284) is a starlink constellation satellite (v1.0) launched May 24, 2019 by SPXS of US. It re-entered the atmosphere on Sep 27, 2020. with a mass of 227.00 kg.

Altitude History

Loading altitude history...

Two-Line Element Set

1 44284U 19029BB 20271.80085332 .18352570 12342-4 18995-2 0 9995
2 44284 52.9805 52.5060 0006216 304.8100 55.7759 16.36958608 75318
Epoch: Sep 27, 2020 • Age: 52267 hours

Current Status

Position data unavailable
Launch Date May 24, 2019
Age 7.3 years
Decay Date Sep 27, 2020
Type internet

Technical Details

Classification Payload
Mass 227.00 kg
Dry Mass 219.00 kg
Total Mass 227.00 kg
Length 0.20 m
Diameter 2.80 m
Span 9.00 m
Shape Box + pan
Manufacturer SPXS
Bus Type Starlink
Phase Status Reentered
Owner/State SPXS/US

Most Searched